(369008) = 2007 LO3

Discovered at Kitt Peak on 2007-06-08 by Spacewatch.

Orbit

Orbit type: Main Belt

Note: WebGL enabled browser required.

epoch2023-02-25.0
epoch JD2460000.5
perihelion date2019-07-04.41642
perihelion JD2458668.91642
argument of perihelion (°)153.33924
ascending node (°)210.32949
inclination (°)8.73765
eccentricity0.3275176
perihelion distance (AU)2.0742245
Tisserand w.r.t. Jupiter3.1
ΔV w.r.t. Earth (km/sec)9.5
semimajor axis (AU)3.0844294
mean anomaly (°)242.27580
mean daily motion (°/day)0.18194560
aphelion distance (AU)4.095
period (years)5.42
P-vector [x]0.99532101
P-vector [y]0.03571761
P-vector [z]0.08977934
Q-vector [x]-0.05875013
Q-vector [y]0.96139019
Q-vector [z]0.26884441
absolute magnitude16.32
phase slope0.15
uncertainty0
referenceMPO 745323
observations used298
oppositions9
arc length (days)5871
first opposition used2007
last opposition used2023
residual rms (arc-secs)0.73
perturbers coarse indicatorM-v
perturbers precise indicator003Ek
first observation date used2007-05-11.0
last observation date used2023-06-07.0
computer nameMPCLINUX
JD of orbit computation2456966.765720
perihelion JD uncertainty (days)5.1142E-05
argument of perihelion uncertainty (°)3.2305E-05
ascending node uncertainty (°)2.3665E-05
inclination uncertainty (°)5.3409E-06
eccentricity uncertainty 9.2592E-08
perihelion distance uncertainty (AU)3.1575E-07
Minimum Orbit Intersection Distances (in AU)
for orbit epoch: 2460000.5, reference: E2023-L34
Mercury1.72128
Venus1.35632
Earth1.07524
Mars0.68229
Jupiter1.41547
Saturn5.47917
Uranus14.3924
Neptune26.6247

Observations

307 total observations over interval: 2007 05 11.39108 – 2023 06 07.301235
These data are available for download (format description).

Date (UT) J2000 RA J2000 Dec Magn Location Ref
2007 05 11.39108 16 20 13.77 -15 16 43.5 21.2 V G96 – Mt. Lemmon Survey MPS 210744
2007 05 11.39766 16 20 13.48 -15 16 41.2 20.4 V G96 – Mt. Lemmon Survey MPS 210744
2007 05 11.40429 16 20 13.20 -15 16 39.3 20.8 V G96 – Mt. Lemmon Survey MPS 210744
2007 05 11.41100 16 20 12.87 -15 16 38.4 20.5 V G96 – Mt. Lemmon Survey MPS 210744
2007 06 08.33655 15 57 34.47 -13 21 28.8 20.6 V 691 – Steward Observatory, Kitt Peak-Spacewatch MPS 210744
2007 06 08.35414 15 57 33.61 -13 21 25.3 20.7 V 691 – Steward Observatory, Kitt Peak-Spacewatch MPS 210744
2007 06 08.37468 15 57 32.63 -13 21 20.6 21.2 V 691 – Steward Observatory, Kitt Peak-Spacewatch MPS 210744
2007 06 10.35789 15 56 00.06 -13 14 26.8 20.8 V 691 – Steward Observatory, Kitt Peak-Spacewatch MPS 210744
2007 06 10.37550 15 55 59.18 -13 14 22.8 21.0 V 691 – Steward Observatory, Kitt Peak-Spacewatch MPS 210744
2007 06 10.39311 15 55 58.38 -13 14 19.4 21.3 V 691 – Steward Observatory, Kitt Peak-Spacewatch MPS 210744
2007 06 13.34332 15 53 45.26 -13 04 37.3 21.1 V 691 – Steward Observatory, Kitt Peak-Spacewatch MPS 210744
2007 06 13.36093 15 53 44.47 -13 04 33.9 21.8 V 691 – Steward Observatory, Kitt Peak-Spacewatch MPS 210744
2007 06 13.37853 15 53 43.68 -13 04 30.0 21.1 V 691 – Steward Observatory, Kitt Peak-Spacewatch MPS 210744
2008 09 21.30105 02 01 38.07 +16 10 26.7 19.3 V 691 – Steward Observatory, Kitt Peak-Spacewatch MPS 258026
2008 09 21.31865 02 01 37.86 +16 10 20.7 19.3 V 691 – Steward Observatory, Kitt Peak-Spacewatch MPS 258026
2008 09 21.33628 02 01 37.65 +16 10 14.3 19.2 V 691 – Steward Observatory, Kitt Peak-Spacewatch MPS 258026
2008 09 26.30538 02 00 29.16 +15 38 08.2   691 – Steward Observatory, Kitt Peak-Spacewatch MPS 258026
2008 09 26.32300 02 00 28.80 +15 38 00.7   691 – Steward Observatory, Kitt Peak-Spacewatch MPS 258026
2008 09 26.34062 02 00 28.43 +15 37 53.3   691 – Steward Observatory, Kitt Peak-Spacewatch MPS 258026
2008 09 27.95554 01 59 57.52 +15 26 12.1 18.7 R A35 – Hormersdorf Observatory MPS 444907
2008 09 27.96269 01 59 57.36 +15 26 09.1 18.8 R A35 – Hormersdorf Observatory MPS 444907
2008 09 27.97341 01 59 57.12 +15 26 04.5 18.8 R A35 – Hormersdorf Observatory MPS 444907
2008 10 02.28511 01 58 15.66 +14 52 22.6 19.0   704 – Lincoln Laboratory ETS, New Mexico MPS 258026
2008 10 02.29742 01 58 15.35 +14 52 16.2 19.3   704 – Lincoln Laboratory ETS, New Mexico MPS 258026
2008 10 02.32201 01 58 14.73 +14 52 04.0 19.6   704 – Lincoln Laboratory ETS, New Mexico MPS 258026
2008 10 02.33433 01 58 14.28 +14 51 57.5 18.9   704 – Lincoln Laboratory ETS, New Mexico MPS 258026
2008 10 06.31084 01 56 19.58 +14 17 46.6 20.1 V 691 – Steward Observatory, Kitt Peak-Spacewatch MPS 259324
2008 10 06.32847 01 56 19.00 +14 17 36.7 18.7 V 691 – Steward Observatory, Kitt Peak-Spacewatch MPS 259324
2008 10 06.34609 01 56 18.40 +14 17 27.2 18.8 V 691 – Steward Observatory, Kitt Peak-Spacewatch MPS 259324
2008 10 06.35944 01 56 17.95 +14 17 19.7 18.4 V 703 – Catalina Sky Survey MPS 259324
2008 10 06.36603 01 56 17.70 +14 17 16.0 18.4 V 703 – Catalina Sky Survey MPS 259324
2008 10 06.37263 01 56 17.52 +14 17 12.3 18.5 V 703 – Catalina Sky Survey MPS 259324
2008 10 06.37924 01 56 17.34 +14 17 09.3 18.3 V 703 – Catalina Sky Survey MPS 259324
2008 10 10.31350 01 54 08.00 +13 40 56.6 18.7 V 691 – Steward Observatory, Kitt Peak-Spacewatch MPS 259324
2008 10 10.32498 01 54 07.59 +13 40 49.8 18.4 V G96 – Mt. Lemmon Survey MPS 259324
2008 10 10.32719 01 54 07.52 +13 40 48.4 18.4 V G96 – Mt. Lemmon Survey MPS 259324
2008 10 10.32928 01 54 07.45 +13 40 47.2 18.4 V G96 – Mt. Lemmon Survey MPS 259324
2008 10 10.33114 01 54 07.35 +13 40 46.5 18.8 V 691 – Steward Observatory, Kitt Peak-Spacewatch MPS 259324
2008 10 10.33141 01 54 07.38 +13 40 46.2 18.5 V G96 – Mt. Lemmon Survey MPS 259324
2008 10 10.34877 01 54 06.67 +13 40 37.1 20.1 V 691 – Steward Observatory, Kitt Peak-Spacewatch MPS 259324
2008 10 20.37211 01 47 56.54 +12 01 51.6 18.1 V G96 – Mt. Lemmon Survey MPS 260654
2008 10 20.37711 01 47 56.32 +12 01 48.6 18.1 V G96 – Mt. Lemmon Survey MPS 260654
2008 10 20.38207 01 47 56.14 +12 01 45.6 18.1 V G96 – Mt. Lemmon Survey MPS 260654
2008 10 20.38709 01 47 55.93 +12 01 42.6 18.1 V G96 – Mt. Lemmon Survey MPS 260654
2008 10 21.14651 01 47 27.62 +11 54 03.8 18.3 V 691 – Steward Observatory, Kitt Peak-Spacewatch MPS 260654
2008 10 21.16412 01 47 26.91 +11 53 53.3 18.3 V 691 – Steward Observatory, Kitt Peak-Spacewatch MPS 260654
2008 10 21.18176 01 47 26.21 +11 53 42.9 18.4 V 691 – Steward Observatory, Kitt Peak-Spacewatch MPS 260654
2008 10 26.25156 01 44 16.07 +11 03 02.4 19.2   704 – Lincoln Laboratory ETS, New Mexico MPS 261641
2008 10 26.26316 01 44 15.62 +11 02 55.5 19.5   704 – Lincoln Laboratory ETS, New Mexico MPS 261641
2008 10 26.27467 01 44 15.13 +11 02 50.0 19.7   704 – Lincoln Laboratory ETS, New Mexico MPS 261641
2008 10 26.28617 01 44 14.60 +11 02 43.4 19.4   704 – Lincoln Laboratory ETS, New Mexico MPS 261641
2008 10 26.29777 01 44 14.18 +11 02 35.9 19.4   704 – Lincoln Laboratory ETS, New Mexico MPS 261641
2008 10 28.22233 01 43 05.19 +10 43 41.9 18.2 V G96 – Mt. Lemmon Survey MPS 261641
2008 10 28.22727 01 43 05.01 +10 43 39.0 18.3 V G96 – Mt. Lemmon Survey MPS 261641
2008 10 28.23230 01 43 04.76 +10 43 37.6 16.8 V G96 – Mt. Lemmon Survey MPS 261641
2008 10 28.23732 01 43 04.62 +10 43 33.1 17.8 V G96 – Mt. Lemmon Survey MPS 261641
2008 11 01.20210 01 40 49.89 +10 05 48.8 18.7   704 – Lincoln Laboratory ETS, New Mexico MPS 263297
2008 11 01.21377 01 40 49.45 +10 05 42.8 18.6   704 – Lincoln Laboratory ETS, New Mexico MPS 263297
2008 11 01.22548 01 40 49.04 +10 05 36.4 18.7   704 – Lincoln Laboratory ETS, New Mexico MPS 263297
2008 11 01.23719 01 40 48.64 +10 05 30.5 18.7   704 – Lincoln Laboratory ETS, New Mexico MPS 263297
2008 11 01.24888 01 40 48.22 +10 05 24.0 18.7   704 – Lincoln Laboratory ETS, New Mexico MPS 263297
2008 11 08.09514 01 37 31.73 +09 05 27.8 19.0 V 691 – Steward Observatory, Kitt Peak-Spacewatch MPS 264632
2008 11 08.11277 01 37 31.25 +09 05 19.0 18.9 V 691 – Steward Observatory, Kitt Peak-Spacewatch MPS 264632
2008 11 08.13039 01 37 30.80 +09 05 10.6 18.9 V 691 – Steward Observatory, Kitt Peak-Spacewatch MPS 264632
2008 11 08.14392 01 37 30.43 +09 05 04.0 18.5 V G96 – Mt. Lemmon Survey MPS 264632
2008 11 08.14996 01 37 30.28 +09 05 01.0 18.6 V G96 – Mt. Lemmon Survey MPS 264632
2008 11 08.15600 01 37 30.14 +09 04 57.6 18.5 V G96 – Mt. Lemmon Survey MPS 264632
2008 11 08.16199 01 37 29.96 +09 04 55.2 18.5 V G96 – Mt. Lemmon Survey MPS 264632
2008 11 19.12291 01 34 23.01 +07 48 11.8 19.3 V 703 – Catalina Sky Survey MPS 265292
2008 11 19.13081 01 34 22.94 +07 48 08.8 19.4 V 703 – Catalina Sky Survey MPS 265292
2008 11 19.13867 01 34 22.83 +07 48 07.0 19.9 V 703 – Catalina Sky Survey MPS 265292
2008 11 19.14659 01 34 22.72 +07 48 04.2 19.7 V 703 – Catalina Sky Survey MPS 265292
2008 11 19.25651 01 34 21.51 +07 47 26.2 18.7   704 – Lincoln Laboratory ETS, New Mexico MPS 265292
2008 11 19.26893 01 34 21.37 +07 47 21.8 19.1   704 – Lincoln Laboratory ETS, New Mexico MPS 265292
2008 11 19.28139 01 34 21.27 +07 47 17.4 18.9   704 – Lincoln Laboratory ETS, New Mexico MPS 265292
2008 11 19.29393 01 34 21.09 +07 47 13.0 18.9   704 – Lincoln Laboratory ETS, New Mexico MPS 265292
2008 11 24.18891 01 33 57.85 +07 22 05.8 19.1   704 – Lincoln Laboratory ETS, New Mexico MPS 266472
2008 11 24.20164 01 33 57.89 +07 22 01.0 20.0   704 – Lincoln Laboratory ETS, New Mexico MPS 266472
2008 11 24.21419 01 33 57.82 +07 21 57.8 19.3   704 – Lincoln Laboratory ETS, New Mexico MPS 266472
2008 11 24.22688 01 33 57.75 +07 21 54.3 19.7   704 – Lincoln Laboratory ETS, New Mexico MPS 266472
2008 11 24.23939 01 33 57.72 +07 21 49.6 19.8   704 – Lincoln Laboratory ETS, New Mexico MPS 266472
2009 01 03.06602 01 53 30.19 +07 16 11.1 19.9 V G96 – Mt. Lemmon Survey MPS 271774
2009 01 03.07455 01 53 30.66 +07 16 12.6 20.4 V G96 – Mt. Lemmon Survey MPS 271774
2009 01 03.08330 01 53 31.16 +07 16 14.3 21.0 V G96 – Mt. Lemmon Survey MPS 271774
2009 01 03.09183 01 53 31.63 +07 16 16.0 20.9 V G96 – Mt. Lemmon Survey MPS 271774
2012 04 27.43902 14 33 35.779 -13 17 33.28 21.4 w F51 – Pan-STARRS 1, Haleakala MPS 422852
